Spokane Fairchild, WA

2:59 PM PDT on April 27, 2017 (GMT -0700)
Fairchild Air Force Base

Weather History for KSKA - September, 2013

Change the Weather History Date:

Thursday, September 19, 2013

  Actual Average Record
Temperature  
Mean Temperature 56 °F -  
Max Temperature 70 °F 69 °F 85 °F (2008)
Min Temperature 41 °F 44 °F 32 °F (2004)
Degree Days  
Heating Degree Days 10    
Growing Degree Days 6 (Base 50)    
Moisture  
Dew Point 40 °F    
Average Humidity 65    
Maximum Humidity 90    
Minimum Humidity 26    
Precipitation  
Precipitation 0.00 in - - ()
Sea Level Pressure  
Sea Level Pressure 30.07 in    
Wind  
Wind Speed 7 mph (ENE)    
Max Wind Speed 13 mph    
Max Gust Speed 20 mph    
Visibility 10 miles    
Events      
Averages and records for this station are not official NWS values.
T = Trace of Precipitation, MM = Missing Value Source: NWS Daily Summary

Daily Weather History Graph

Daily Weather History Graph

Search for Another Location

Airport or City:

Trip Planner

Search our weather history database for the weather conditions in past years. The results will help you decide how hot, cold, wet, or windy it might be!

Date:

Astronomy

Sep. 19, 2013 Rise Set
Actual Time 6:33 AM PDT 6:53 PM PDT
Civil Twilight 6:02 AM PDT 7:24 PM PDT
Nautical Twilight 5:26 AM PDT 8:00 PM PDT
Astronomical Twilight 4:48 AM PDT 8:38 PM PDT
Moon 6:48 PM PDT (9/19) 6:52 AM PDT (9/19)
Length of Visible Light 13h 21m
Length of Day
12h 20m
Full, 100% of the Moon is Illuminated
Sep 19
Full
Sep 26
Last Quarter
Oct 4
New
Oct 11
First Quarter
Oct 18
Full

Hourly Weather History & Observations

Time (PDT) Temp. Windchill Dew Point Humidity Pressure Visibility Wind Dir Wind Speed Gust Speed Precip Events Conditions
12:58 AM 47.5 °F - 40.8 °F 78% 30.09 in 10.0 mi South 5.8 mph - N/A   Clear
1:58 AM 46.6 °F - 40.8 °F 80% 30.10 in 10.0 mi SE 8.1 mph - N/A   Clear
2:54 AM 42.8 °F 38.6 °F 39.2 °F 87% 30.10 in 10.0 mi ESE 6.9 mph - N/A   Clear
2:58 AM 43.0 °F 38.8 °F 39.7 °F 88% 30.11 in 10.0 mi ESE 6.9 mph - 0.00 in   Clear
3:14 AM 42.8 °F 39.3 °F 39.2 °F 87% 30.10 in 10.0 mi ESE 5.8 mph - N/A   Clear
3:58 AM 41.9 °F 37.5 °F 38.1 °F 86% 30.11 in 10.0 mi SE 6.9 mph - 0.00 in   Clear
4:58 AM 44.4 °F - 39.0 °F 81% 30.11 in 10.0 mi SSE 2.3 mph - N/A   Clear
5:58 AM 43.7 °F - 38.3 °F 81% 30.14 in 10.0 mi NE 2.3 mph - N/A   Clear
6:07 AM 42.8 °F 40.1 °F 39.2 °F 87% 30.12 in 10.0 mi NE 4.6 mph - N/A   Clear
6:27 AM 44.6 °F 41.4 °F 39.2 °F 81% 30.12 in 10.0 mi NE 5.8 mph - N/A   Clear
6:58 AM 43.0 °F 39.5 °F 40.3 °F 90% 30.13 in 10.0 mi NE 5.8 mph - 0.00 in   Clear
7:58 AM 46.9 °F - 43.5 °F 88% 30.14 in 10.0 mi NE 4.6 mph - N/A   Clear
8:58 AM 52.3 °F - 44.8 °F 75% 30.14 in 10.0 mi NE 9.2 mph - N/A   Clear
9:58 AM 57.6 °F - 44.6 °F 62% 30.14 in 10.0 mi East 10.4 mph - N/A   Clear
10:58 AM 61.0 °F - 45.0 °F 56% 30.14 in 10.0 mi NE 9.2 mph - N/A   Clear
11:58 AM 64.4 °F - 43.5 °F 47% 30.12 in 10.0 mi East 8.1 mph 19.6 mph N/A   Clear
12:58 PM 66.9 °F - 40.5 °F 38% 30.09 in 10.0 mi SE 8.1 mph - N/A   Clear
1:58 PM 67.8 °F - 39.2 °F 35% 30.08 in 10.0 mi East 8.1 mph - N/A   Clear
2:58 PM 68.7 °F - 38.5 °F 33% 30.06 in 10.0 mi SE 8.1 mph 18.4 mph N/A   Clear
3:58 PM 70.0 °F - 33.8 °F 26% 30.03 in 10.0 mi Variable 6.9 mph - N/A   Clear
4:58 PM 69.4 °F - 34.0 °F 27% 30.01 in 10.0 mi East 6.9 mph - N/A   Clear
5:58 PM 66.4 °F - 37.2 °F 34% 30.01 in 10.0 mi ENE 6.9 mph - N/A   Clear
6:56 PM 60.8 °F - 41.0 °F 48% 29.98 in 10.0 mi North 8.1 mph - N/A   Clear
7:55 PM 59.4 °F - 40.3 °F 49% 29.99 in 10.0 mi NNE 9.2 mph - N/A   Clear
8:56 PM 53.6 °F - 42.8 °F 67% 29.97 in 10.0 mi NE 8.1 mph - N/A   Clear
9:56 PM 51.8 °F - 42.8 °F 71% 29.97 in 10.0 mi NE 9.2 mph - N/A   Clear
10:58 PM 52.9 °F - 43.5 °F 71% 29.96 in 10.0 mi NNE 10.4 mph - N/A   Clear
11:58 PM 53.2 °F - 44.4 °F 72% 29.95 in 10.0 mi NE 12.7 mph - N/A   Clear